Weather in Serpeysk

Russia / Kaluga Oblast     54°20′10″N   34°59′27″E
temp.,
°C
wind,
m/s
gust,
m/s
humid.,
%
clouds,
%
prec.,
mm/h
press.,
hPa
HPBL,
m
23 april, fri
fri2300:00+7s411935 0.1 1014240
03:00+6s411945 0.1 1014275
06:00+6s5119574 0.2 1014343
09:00+10ssw7148277 0.4 1013838
12:00+6wnw6893100 1.1 1014378
15:00+5w3688100 5.4 1014562
18:00+8ssw2470100 0.1 1013674
21:00+5ssw2483100 0.3 101367
24 april, sat
sat2400:00+5wsw2380100 0.1 101160
03:00+4nw1286100 0.2 1011128
06:00+3wnw249592 0.3 1010294
09:00+5w457085 0.6 1009915
12:00+7wsw5563100 1.2 10081363
15:00+6w6770100 2.7 10081228
18:00+2wnw71494100 2.1 1010856
21:00+2w61279100 2.8 1011567
25 april, sun
sun2500:00+1w512855 0.0 1012439
03:00−1wsw511905 0.0 1012363
06:00−1wsw410949 0.0 1013358
09:00+3wsw577668 0.0 1012976
12:00+5sw7105698 0.2 10121835
15:00+6w575396 0.4 10111893
18:00+5w585559 0.1 10111571
21:00+1wsw38785 0.1 1013171
26 april, mon
mon2600:00−1sw410845 0.0 1013237
03:00−1sw410885 0.0 1013273
06:00−1sw49905 0.0 1013318
09:00+4wsw576626 0.0 10131026
12:00+7wsw5741100 0.1 10122379
15:00+8wsw4639100 0.1 10112338
18:00+6wsw445778 0.4 10111076
21:00+2wsw238092 0.4 101045
27 april, tue
tue2700:00+1sw238597 0.1 101045
03:000wsw2482100 0.1 1010104
06:00−1wsw248543 0.0 1009104
09:00+4wsw45635 0.0 1009825
12:00+6wsw5652100 0.8 10081886
15:00+7w675696 1.8 10081811
18:00+6w475811 0.4 10081433
21:00+1w36835 0.5 1010105